Location: Unspecified
(0.0000°N, 0.0000°E)
Time: 20:53:54
(UTC+00:00)

DMSP 5D-2 F13 DEB - Pass Details

Date: 18 February 2026
Orbit: 782 x 824 km, 98.9° (Epoch: 12 March)

Event Time Altitude Azimuth Distance (km) Brightness Sun altitude
Rises 18:29:45 0° 143° (SE) 3,273 ? -3.9°
Reaches altitude 10° 18:32:30 10° 129° (SE) 2,338 ? -4.6°
Maximum altitude 18:36:32 23° 77° (ENE) 1,596 ? -5.5°
Drops below altitude 10° 18:40:33 10° 25° (NNE) 2,328 ? -6.5°
Sets 18:43:16 0° 11° (NNE) 3,254 ? -7.2°
